EW5637 Weather Reports


Display with metric or nautical units.
time (UTC)temp
F
wind
direction
speed
MPH
gust
MPH
rain 1hr
in
rain 24hr
in
rain mn
in
humidity
%
barometer
mb
20260901143542 82 252 1.0 8.0 0.00 0.00 0.00 78 1016.9
20260901143109 82 321 3.0 10.0 0.00 0.00 0.00 77 1016.9
20260901142541 82 315 5.0 10.0 0.00 0.00 0.00 77 1017.0
20260901142041 82 270 1.0 8.0 0.00 0.00 0.00 79 1016.9
20260901141552 82 255 3.0 8.0 0.00 0.00 0.00 78 1017.0
20260901141042 81 267 3.0 8.0 0.00 0.00 0.00 79 1016.8
20260901140541 80 227 2.0 8.0 0.00 0.00 0.00 80 1016.8
20260901140110 80 266 1.0 7.0 0.00 0.00 0.00 80 1016.8
20260901135541 80 268 1.0 7.0 0.00 0.00 0.00 81 1016.8
20260901135041 79 264 3.0 8.0 0.00 0.00 0.00 81 1016.9
20260901134552 78 289 2.0 8.0 0.00 0.00 0.00 83 1017.0
20260901134043 78 161 2.0 5.0 0.00 0.00 0.00 84 1017.0
20260901133542 77 129 1.0 3.0 0.00 0.00 0.00 87 1017.0
20260901133054 77 0 1.0 4.0 0.00 0.00 0.00 88 1017.0
20260901132543 77 105 1.0 6.0 0.00 0.00 0.00 88 1017.1
20260901132042 76 0 2.0 6.0 0.00 0.00 0.00 89 1017.1
20260901131553 76 105 3.0 6.0 0.00 0.00 0.00 90 1017.3
20260901131042 76 108 3.0 6.0 0.00 0.00 0.00 91 1017.4
20260901130543 75 108 2.0 4.0 0.00 0.00 0.00 94 1017.4
20260901130053 75 109 2.0 4.0 0.00 0.00 0.00 95 1017.5
20260901125542 74 113 2.0 3.0 0.00 0.00 0.00 96 1017.4
20260901125042 74 118 1.0 2.0 0.00 0.00 0.00 96 1017.5
20260901124558 73 0 0.0 0.0 0.00 0.00 0.00 97 1017.5
20260901124044 72 0 0.0 0.0 0.00 0.00 0.00 96 1017.5
20260901123543 72 0 0.0 0.0 0.00 0.00 0.00 96 1017.7
20260901123117 72 0 0.0 0.0 0.00 0.00 0.00 96 1017.5
20260901122543 71 0 0.0 0.0 0.00 0.00 0.00 96 1017.5
20260901122041 71 0 0.0 0.0 0.00 0.00 0.00 96 1017.4
20260901121606 71 0 0.0 0.0 0.00 0.00 0.00 96 1017.4
20260901121047 71 0 0.0 0.0 0.00 0.00 0.00 96 1017.5
20260901120542 70 0 0.0 0.0 0.00 0.00 0.00 96 1017.5
20260901115540 70 0 0.0 0.0 0.00 0.00 0.00 96 1017.5
20260901115041 70 0 0.0 0.0 0.00 0.00 0.00 96 1017.5
20260901114554 70 0 0.0 0.0 0.00 0.00 0.00 96 1017.5
20260901114041 70 0 0.0 0.0 0.00 0.00 0.00 96 1017.6
20260901113542 70 0 0.0 0.0 0.00 0.00 0.00 96 1017.6
20260901113105 70 0 0.0 0.0 0.00 0.00 0.00 96 1017.4
20260901112541 70 0 0.0 0.0 0.00 0.00 0.00 96 1017.3
20260901112043 70 0 0.0 0.0 0.00 0.00 0.00 96 1017.2
20260901111556 69 0 0.0 0.0 0.00 0.00 0.00 96 1017.2
20260901111045 69 0 0.0 0.0 0.00 0.00 0.00 96 1017.2
20260901110541 69 0 0.0 0.0 0.00 0.00 0.00 96 1017.2
20260901110103 69 0 0.0 0.0 0.00 0.00 0.00 96 1017.1
20260901105542 69 0 0.0 0.0 0.00 0.00 0.00 96 1017.2
20260901105042 69 0 0.0 0.0 0.00 0.00 0.00 95 1017.1
20260901104559 69 0 0.0 2.0 0.00 0.00 0.00 96 1017.1
20260901104042 69 0 0.0 2.0 0.00 0.00 0.00 96 1017.2
20260901103544 69 0 0.0 2.0 0.00 0.00 0.00 96 1017.2
20260901103111 69 118 0.0 2.0 0.00 0.00 0.00 96 1017.1
20260901102542 69 0 0.0 2.0 0.00 0.00 0.00 96 1017.0
20260901102043 69 0 0.0 2.0 0.00 0.00 0.00 96 1017.1
20260901101605 69 0 1.0 4.0 0.00 0.00 0.00 96 1017.1
20260901101042 69 0 2.0 4.0 0.00 0.00 0.00 96 1017.0
20260901100544 69 69 1.0 3.0 0.00 0.00 0.00 96 1017.1
20260901100105 69 0 0.0 3.0 0.00 0.00 0.00 96 1017.1
20260901095545 69 323 2.0 3.0 0.00 0.00 0.00 96 1017.0
20260901095042 69 0 1.0 3.0 0.00 0.00 0.00 96 1017.0
20260901094558 69 0 0.0 2.0 0.00 0.00 0.00 95 1017.0
20260901094041 69 0 0.0 0.0 0.00 0.00 0.00 96 1017.1
20260901093543 69 0 0.0 1.0 0.00 0.00 0.00 96 1017.2
20260901093106 69 0 0.0 1.0 0.00 0.00 0.00 96 1017.2
20260901092542 69 0 0.0 0.0 0.00 0.00 0.00 96 1017.2
20260901092042 69 0 0.0 0.0 0.00 0.00 0.00 96 1017.3
20260901091602 69 0 0.0 0.0 0.00 0.00 0.00 96 1017.2
20260901091041 69 0 0.0 0.0 0.00 0.00 0.00 96 1017.2
20260901090541 69 0 0.0 2.0 0.00 0.00 0.00 96 1017.3
20260901090051 69 0 0.0 2.0 0.00 0.00 0.00 96 1017.2
20260901085541 69 0 0.0 4.0 0.00 0.00 0.00 96 1017.3
20260901085041 69 322 0.0 4.0 0.00 0.00 0.00 96 1017.3
20260901084554 69 65 1.0 3.0 0.00 0.00 0.00 96 1017.3
20260901084042 69 0 0.0 3.0 0.00 0.00 0.00 96 1017.2
20260901083541 68 65 1.0 3.0 0.00 0.00 0.00 96 1017.1
20260901083101 68 281 1.0 3.0 0.00 0.00 0.00 96 1017.2
20260901082541 68 0 0.0 0.0 0.00 0.00 0.00 96 1017.3
20260901082046 68 0 0.0 2.0 0.00 0.00 0.00 96 1017.3
20260901081553 68 0 0.0 2.0 0.00 0.00 0.00 96 1017.4
20260901081040 68 0 0.0 2.0 0.00 0.00 0.00 95 1017.4
20260901080541 68 0 0.0 0.0 0.00 0.00 0.00 96 1017.5
20260901080057 68 0 0.0 2.0 0.00 0.00 0.00 96 1017.4
20260901075542 68 0 0.0 2.0 0.00 0.00 0.00 96 1017.5
20260901075038 68 281 0.0 2.0 0.00 0.00 0.00 96 1017.5
20260901074604 68 281 0.0 2.0 0.00 0.00 0.00 96 1017.6
20260901074042 68 0 0.0 0.0 0.00 0.00 0.00 96 1017.4
20260901073542 68 0 0.0 0.0 0.00 0.00 0.00 96 1017.4
20260901073054 68 0 0.0 0.0 0.00 0.00 0.00 95 1017.4
20260901072542 68 0 0.0 0.0 0.00 0.00 0.00 95 1017.4
20260901072045 68 0 0.0 2.0 0.00 0.00 0.00 95 1017.4
20260901071605 68 0 0.0 2.0 0.00 0.00 0.00 95 1017.4
20260901071041 68 281 0.0 2.0 0.00 0.00 0.00 95 1017.3
20260901070543 68 0 0.0 0.0 0.00 0.00 0.00 96 1017.3
20260901070112 68 0 0.0 0.0 0.00 0.00 0.00 95 1017.3
20260901065541 68 0 0.0 0.0 0.00 0.00 0.00 95 1017.4
20260901065041 68 0 0.0 0.0 0.00 0.00 0.00 95 1017.5
20260901064600 68 0 0.0 0.0 0.00 0.00 0.00 95 1017.7
20260901064045 68 0 0.0 0.0 0.00 0.00 0.00 95 1017.7
20260901063538 68 0 0.0 0.0 0.00 0.00 0.00 95 1017.8
20260901063056 68 0 0.0 0.0 0.00 0.00 0.00 95 1017.8
20260901062542 68 0 0.0 0.0 0.00 0.00 0.00 95 1017.8
20260901062042 68 0 0.0 0.0 0.00 0.00 0.00 95 1017.9
20260901061610 69 0 0.0 0.0 0.00 0.00 0.00 95 1017.9
20260901061039 69 0 0.0 0.0 0.00 0.00 0.00 95 1018.0
20260901060541 69 0 0.0 0.0 0.00 0.00 0.00 95 1018.0
20260901060107 68 0 0.0 0.0 0.00 0.00 0.00 95 1018.0
20260901055541 68 0 0.0 3.0 0.00 0.04 0.00 95 1018.1
20260901055041 68 0 0.0 4.0 0.00 0.04 0.00 94 1018.3
20260901054609 69 281 2.0 4.0 0.00 0.04 0.00 94 1018.4
20260901054042 69 281 0.0 3.0 0.00 0.04 0.00 95 1018.4
20260901053544 69 0 0.0 0.0 0.00 0.04 0.00 95 1018.4
20260901053106 69 0 0.0 0.0 0.00 0.04 0.00 95 1018.4
20260901052541 69 0 0.0 0.0 0.00 0.04 0.00 95 1018.4
20260901052043 69 0 0.0 0.0 0.00 0.04 0.00 95 1018.4
20260901051552 69 0 0.0 0.0 0.00 0.04 0.00 95 1018.4
20260901051044 69 0 0.0 0.0 0.00 0.04 0.00 94 1018.3
20260901050541 70 0 0.0 0.0 0.00 0.04 0.00 95 1018.3
20260901050105 70 0 0.0 0.0 0.00 0.04 0.00 95 1018.4
20260901045543 70 0 0.0 0.0 0.00 0.04 0.00 95 1018.3
20260901045041 70 0 0.0 0.0 0.00 0.04 0.00 95 1018.3
20260901044621 70 0 0.0 0.0 0.00 0.04 0.00 95 1018.2
20260901044045 70 0 0.0 0.0 0.00 0.04 0.00 95 1018.3
20260901043543 70 0 0.0 0.0 0.00 0.04 0.00 95 1018.3
20260901043056 70 0 0.0 0.0 0.00 0.04 0.00 95 1018.3
20260901042541 70 0 0.0 0.0 0.00 0.04 0.00 95 1018.3
20260901042041 70 0 0.0 0.0 0.00 0.04 0.00 95 1018.3
20260901041551 70 0 0.0 0.0 0.00 0.04 0.00 95 1018.4
20260901041045 70 0 0.0 0.0 0.00 0.04 0.00 95 1018.4
20260901040541 70 0 0.0 0.0 0.00 0.04 0.00 95 1018.5
20260901040106 70 0 0.0 0.0 0.00 0.04 0.00 94 1018.5
20260901035544 70 0 0.0 0.0 0.00 0.04 0.04 95 1018.5
20260901035044 70 0 0.0 0.0 0.00 0.04 0.04 95 1018.6
20260901034558 71 0 0.0 0.0 0.00 0.04 0.04 94 1018.6
20260901034041 71 0 0.0 0.0 0.00 0.04 0.04 95 1018.7
20260901033541 71 0 0.0 0.0 0.00 0.04 0.04 95 1018.6
20260901033054 71 0 0.0 0.0 0.00 0.04 0.04 94 1018.6
20260901032542 71 0 0.0 0.0 0.00 0.04 0.04 95 1018.7
20260901032041 71 0 0.0 0.0 0.00 0.04 0.04 94 1018.7
20260901031556 70 0 0.0 0.0 0.00 0.04 0.04 94 1018.6
20260901031041 70 0 0.0 0.0 0.00 0.04 0.04 94 1018.8
20260901030541 70 0 0.0 0.0 0.00 0.04 0.04 94 1018.8
20260901030054 71 0 0.0 0.0 0.00 0.04 0.04 94 1018.9
20260901025541 71 0 0.0 0.0 0.00 0.04 0.04 93 1018.9
20260901025045 71 0 0.0 0.0 0.00 0.04 0.04 94 1018.9
20260901024606 71 0 0.0 0.0 0.00 0.04 0.04 94 1018.9
20260901024045 71 0 0.0 0.0 0.00 0.04 0.04 94 1019.0
20260901023542 71 0 0.0 0.0 0.00 0.04 0.04 94 1019.1
20260901023100 71 0 0.0 0.0 0.00 0.04 0.04 94 1019.2
20260901022541 71 0 0.0 0.0 0.00 0.04 0.04 94 1019.1
20260901022041 71 0 0.0 0.0 0.00 0.04 0.04 94 1019.1
20260901021557 71 0 0.0 0.0 0.00 0.04 0.04 94 1019.1
20260901021041 71 0 0.0 0.0 0.00 0.04 0.04 93 1019.1
20260901020537 71 0 0.0 0.0 0.00 0.04 0.04 93 1019.1
20260901020104 71 0 0.0 0.0 0.00 0.04 0.04 93 1019.1
20260901015541 71 0 0.0 0.0 0.00 0.04 0.04 93 1019.0
20260901015041 71 0 0.0 0.0 0.00 0.04 0.04 93 1018.9
20260901014559 71 0 0.0 0.0 0.00 0.04 0.04 93 1018.8
20260901014042 71 0 0.0 2.0 0.00 0.04 0.04 94 1018.8
20260901013542 71 0 0.0 3.0 0.00 0.04 0.04 93 1018.8
20260901013104 71 0 1.0 3.0 0.00 0.04 0.04 93 1018.7
20260901012541 71 281 2.0 3.0 0.00 0.04 0.04 93 1018.7
20260901012043 71 0 0.0 1.0 0.00 0.04 0.04 93 1018.5
20260901011608 71 0 0.0 0.0 0.00 0.04 0.04 93 1018.6
20260901011041 71 0 0.0 3.0 0.00 0.04 0.04 93 1018.6
20260901010541 71 0 0.0 4.0 0.00 0.04 0.04 92 1018.6
20260901010058 71 281 2.0 4.0 0.00 0.04 0.04 92 1018.5
20260901005542 72 267 2.0 4.0 0.00 0.04 0.04 92 1018.5
20260901005043 72 0 0.0 0.0 0.00 0.04 0.04 92 1018.4
20260901004602 72 0 0.0 0.0 0.00 0.04 0.04 92 1018.3
20260901004042 73 0 0.0 0.0 0.00 0.04 0.04 92 1018.3
20260901003542 73 0 0.0 0.0 0.00 0.04 0.04 92 1018.3
20260901003107 73 0 0.0 0.0 0.00 0.04 0.04 91 1018.3
20260901002542 73 0 0.0 0.0 0.00 0.04 0.04 92 1018.2
20260901002046 73 0 0.0 0.0 0.00 0.04 0.04 92 1018.3
20260901001552 74 0 0.0 0.0 0.00 0.04 0.04 92 1018.3
20260901001041 74 0 0.0 0.0 0.00 0.04 0.04 91 1018.3
20260901000541 74 0 0.0 0.0 0.00 0.04 0.04 92 1018.2
20260901000103 74 0 0.0 0.0 0.00 0.04 0.04 91 1018.2
20260831235538 74 0 0.0 0.0 0.00 0.04 0.04 90 1018.2
20260831235042 74 0 0.0 0.0 0.00 0.04 0.04 90 1018.2
20260831234558 74 0 0.0 0.0 0.00 0.04 0.04 90 1018.2
20260831234042 74 0 0.0 0.0 0.00 0.04 0.04 90 1018.3
20260831233541 75 0 0.0 0.0 0.00 0.04 0.04 89 1018.3
20260831233056 75 0 0.0 1.0 0.00 0.04 0.04 89 1018.4
20260831232538 75 0 0.0 1.0 0.00 0.04 0.04 89 1018.4
20260831232041 76 0 0.0 0.0 0.00 0.04 0.04 89 1018.4
20260831231602 76 0 0.0 0.0 0.00 0.04 0.04 88 1018.5
20260831231041 76 0 0.0 0.0 0.00 0.04 0.04 88 1018.5
20260831230544 76 0 0.0 0.0 0.00 0.04 0.04 87 1018.5
20260831225541 77 0 0.0 2.0 0.00 0.04 0.04 86 1018.6
20260831225046 77 0 0.0 2.0 0.00 0.04 0.04 86 1018.5
20260831224555 77 175 0.0 2.0 0.00 0.04 0.04 86 1018.4
20260831224041 78 175 1.0 3.0 0.00 0.04 0.04 85 1018.4
20260831223542 77 175 0.0 5.0 0.00 0.04 0.04 86 1018.5
20260831223056 77 174 0.0 5.0 0.00 0.04 0.04 86 1018.5
20260831222543 77 0 0.0 1.0 0.00 0.04 0.04 86 1018.5
20260831222042 77 0 0.0 0.0 0.00 0.04 0.04 88 1018.7
20260831221555 77 0 0.0 0.0 0.00 0.04 0.04 87 1018.7
20260831221042 78 0 0.0 0.0 0.00 0.04 0.04 88 1018.9
20260831220542 78 0 0.0 0.0 0.00 0.04 0.04 87 1018.8
20260831220104 78 0 0.0 0.0 0.00 0.04 0.04 87 1018.8
20260831215542 78 0 0.0 0.0 0.00 0.04 0.04 86 1018.9
20260831215042 77 0 0.0 0.0 0.00 0.04 0.04 84 1018.9
20260831214622 77 0 0.0 0.0 0.00 0.04 0.04 85 1018.9
20260831214042 77 0 0.0 0.0 0.00 0.04 0.04 85 1018.8
20260831213541 77 0 0.0 4.0 0.00 0.04 0.04 85 1018.9
20260831213101 77 0 1.0 5.0 0.00 0.04 0.04 84 1018.8
20260831212542 77 174 2.0 5.0 0.00 0.04 0.04 84 1018.9
20260831212041 77 173 2.0 4.0 0.00 0.04 0.04 83 1019.0
20260831211602 78 173 1.0 4.0 0.00 0.04 0.04 81 1019.0
20260831211045 78 0 0.0 5.0 0.00 0.04 0.04 81 1019.0
20260831210635 78 169 1.0 5.0 0.00 0.04 0.04 80 1019.2
20260831205541 78 173 1.0 5.0 0.00 0.04 0.04 79 1019.3
20260831205041 79 163 0.0 6.0 0.00 0.04 0.04 79 1019.2
20260831204601 79 170 1.0 6.0 0.00 0.04 0.04 78 1019.3
20260831204043 79 171 1.0 5.0 0.00 0.04 0.04 78 1019.2
20260831203546 79 0 0.0 8.0 0.00 0.04 0.04 79 1019.1
20260831203052 79 159 2.0 8.0 0.00 0.04 0.04 78 1019.2
20260831202542 79 0 1.0 6.0 0.00 0.04 0.04 78 1019.1
20260831202042 79 174 1.0 6.0 0.00 0.04 0.04 78 1019.2
20260831201631 79 186 2.0 6.0 0.00 0.04 0.04 77 1019.2
20260831201041 79 0 2.0 6.0 0.00 0.04 0.04 77 1019.3
20260831200726 79 194 0.0 7.0 0.00 0.04 0.04 77 1019.4
20260831200125 79 180 1.0 7.0 0.00 0.04 0.04 76 1019.4
20260831195041 80 139 2.0 7.0 0.00 0.04 0.04 75 1019.3
20260831194555 80 173 2.0 7.0 0.00 0.04 0.04 76 1019.4
20260831194324 80 0 2.0 7.0 0.00 0.04 0.04 76 1019.5
20260831193544 80 184 3.0 7.0 0.00 0.04 0.04 75 1019.4
20260831193102 80 196 3.0 8.0 0.00 0.04 0.04 75 1019.4
20260831192541 80 163 3.0 8.0 0.00 0.04 0.04 75 1019.5
20260831192041 81 120 4.0 8.0 0.00 0.04 0.04 74 1019.7
20260831191601 81 213 1.0 6.0 0.00 0.04 0.04 75 1019.7
20260831191045 81 119 1.0 8.0 0.00 0.04 0.04 74 1019.7
20260831190542 81 205 3.0 8.0 0.00 0.04 0.04 73 1019.8
20260831190114 81 150 4.0 7.0 0.00 0.04 0.04 72 1019.7
20260831185541 80 124 3.0 9.0 0.00 0.04 0.04 73 1019.7
20260831185044 80 145 3.0 10.0 0.00 0.04 0.04 73 1019.7
20260831184556 80 158 7.0 10.0 0.00 0.04 0.04 74 1019.9
20260831184041 80 115 5.0 9.0 0.00 0.04 0.04 74 1019.9
20260831183541 80 148 3.0 7.0 0.00 0.04 0.04 76 1020.0
20260831183105 79 172 3.0 7.0 0.00 0.04 0.04 75 1019.9
20260831182542 79 181 3.0 6.0 0.00 0.04 0.04 75 1020.0
20260831182042 79 197 1.0 7.0 0.00 0.04 0.04 76 1020.1
20260831181554 79 144 2.0 9.0 0.00 0.04 0.04 76 1020.1
20260831181042 79 178 2.0 9.0 0.00 0.04 0.04 76 1020.0
20260831180543 79 184 2.0 7.0 0.00 0.04 0.04 76 1020.1
20260831180105 79 174 2.0 5.0 0.00 0.04 0.04 75 1020.1
20260831175541 79 167 1.0 4.0 0.00 0.04 0.04 75 1020.1
20260831175042 80 177 1.0 6.0 0.00 0.04 0.04 74 1020.2
20260831174607 80 186 2.0 9.0 0.00 0.04 0.04 72 1020.3
20260831174042 80 216 3.0 9.0 0.00 0.04 0.04 72 1020.3
20260831173544 80 208 3.0 9.0 0.00 0.04 0.04 72 1020.2
20260831173056 80 220 2.0 9.0 0.00 0.04 0.04 73 1020.1
20260831172541 80 206 2.0 7.0 0.00 0.04 0.04 72 1020.2
20260831172041 80 232 2.0 7.0 0.00 0.04 0.04 74 1020.3
20260831171554 80 138 4.0 7.0 0.00 0.04 0.04 72 1020.2
20260831171041 80 0 1.0 7.0 0.00 0.04 0.04 74 1020.2
20260831170542 80 0 1.0 9.0 0.00 0.04 0.04 74 1020.3
20260831170056 79 172 5.0 9.0 0.00 0.04 0.04 73 1020.3
20260831165542 79 163 2.0 6.0 0.00 0.04 0.04 74 1020.3
20260831165042 80 109 1.0 7.0 0.00 0.04 0.04 74 1020.4
20260831164606 80 161 2.0 7.0 0.00 0.04 0.04 73 1020.5
20260831164041 80 163 3.0 7.0 0.00 0.04 0.04 75 1020.4
20260831163542 79 138 1.0 7.0 0.00 0.04 0.04 75 1020.5
20260831163058 79 0 0.0 7.0 0.00 0.04 0.04 74 1020.7
20260831162541 79 135 3.0 7.0 0.00 0.04 0.04 73 1020.6
20260831162042 79 97 1.0 5.0 0.00 0.04 0.04 75 1020.6
20260831161628 78 0 1.0 5.0 0.00 0.04 0.04 73 1020.7
20260831161041 78 163 0.0 4.0 0.00 0.04 0.04 73 1020.6
20260831160541 78 0 1.0 5.0 0.00 0.04 0.04 74 1020.7
20260831160054 78 0 3.0 7.0 0.00 0.04 0.04 75 1020.7
20260831155542 78 204 3.0 7.0 0.00 0.04 0.04 76 1020.6
20260831155042 78 135 1.0 6.0 0.00 0.04 0.04 75 1020.5
20260831154624 78 155 2.0 5.0 0.00 0.04 0.04 76 1020.7
20260831154042 77 150 0.0 6.0 0.00 0.04 0.04 78 1020.7
20260831153541 77 0 0.0 6.0 0.00 0.04 0.04 75 1020.8
20260831153103 77 163 2.0 6.0 0.00 0.04 0.04 76 1020.8
20260831152541 77 0 1.0 4.0 0.00 0.04 0.04 79 1020.8
20260831152042 76 174 1.0 3.0 0.00 0.04 0.04 79 1020.7
20260831151556 76 0 1.0 4.0 0.00 0.04 0.04 79 1020.7
20260831151043 76 129 1.0 6.0 0.00 0.04 0.04 79 1020.7
20260831150542 76 0 1.0 6.0 0.00 0.04 0.04 78 1020.8
20260831150107 76 96 2.0 6.0 0.00 0.04 0.04 79 1020.8
20260831145543 76 94 1.0 6.0 0.00 0.04 0.04 79 1020.7
20260831145041 76 74 3.0 7.0 0.00 0.04 0.04 79 1020.8
20260831144604 76 81 1.0 7.0 0.00 0.04 0.04 78 1020.9
20260831144041 76 109 3.0 7.0 0.00 0.04 0.04 78 1020.8